Location: Altoona
(40.5167°N, 78.4000°W)
Time: 07:13:43
(UTC-05:00)

Daily predictions for brighter satellites

Satellite Brightness Start Highest point End
(mag) Time Altitude Azimuth Time Altitude Azimuth Time Altitude Azimuth
Cosmos 1725 Rocket 4.1 18:10:40 10° N 18:17:02 86° E 18:23:18 10° S
Cosmos 2333 Rocket 2.2 18:11:45 10° NNW 18:17:27 79° ENE 18:23:06 10° SSE
COSMOS 2428 3.8 18:18:03 10° NNW 18:23:36 52° WSW 18:29:07 10° S
Cosmos 2082 4.1 18:18:42 10° S 18:23:52 40° ESE 18:29:06 10° NE
ERS-2 3.3 18:23:54 10° ESE 18:26:53 24° ENE 18:29:53 10° NNE
Abrixas rocket 3.6 18:26:01 10° WNW 18:29:00 37° SW 18:31:57 10° SSE
Cosmos 2123 Rocket 4.4 18:22:51 10° SSW 18:29:00 70° W 18:35:12 10° N
Envisat 4.3 18:30:42 10° ESE 18:34:13 19° ENE 18:37:44 10° NNE
Cosmos 1674 Rocket 4.2 18:30:38 10° N 18:34:36 33° ENE 18:38:31 10° SE
Okean 1-7 4.4 18:31:31 10° NNW 18:35:44 45° W 18:39:55 10° SSW
CZ-2C R/B 4.5 18:31:29 10° N 18:35:51 54° WNW 18:40:10 10° SSW
SL-8 R/B 4.3 18:32:07 10° SSW 18:36:33 39° SE 18:40:35 12° ENE
Cosmos 1633 3.7 18:35:16 10° SE 18:38:01 21° E 18:40:46 10° NE
USA 215 3.5 18:32:53 10° NE 18:39:13 51° SE 18:45:31 10° SSW
YAOGAN 1 3.8 18:37:33 10° S 18:41:43 46° W 18:45:54 10° NNW
Cosmos 1371 Rocket 4.4 18:37:15 10° NNW 18:42:30 71° WSW 18:47:46 10° S
Cosmos 1980 3.7 18:37:40 10° NNW 18:43:24 82° ENE 18:49:04 10° SSE
SeaSat 1 3.3 18:39:26 10° ESE 18:43:41 30° NE 18:47:57 10° N
EO 1 Del DPAF 3.2 18:39:58 10° NNE 18:43:48 69° ESE 18:47:35 10° S
NOSS 3-2 (C) 3.4 18:39:59 10° SSW 18:45:52 82° ESE 18:52:23 10° NE
NOSS 0 Rocket 4.2 18:41:10 10° NNW 18:47:21 74° WSW 18:53:32 10° SSE
Aureole 3 4.3 18:41:18 10° S 18:47:27 54° E 18:52:21 10° NNE
Cosmos 1733 Rocket 2.9 18:45:00 10° S 18:49:18 77° E 18:53:37 10° N
HJ-1C 4.3 18:46:31 10° SE 18:49:28 27° ENE 18:52:25 10° NNE
FengYun 1-2 T 4.2 18:45:33 10° SSE 18:50:56 59° ENE 18:56:21 10° N
Resurs 01 Rocket 3.1 18:55:49 17° ENE 18:55:53 17° ENE 18:58:39 10° NNE
Cosmos 921 Rocket 4.4 18:52:42 10° NNE 18:56:00 20° ENE 18:56:51 19° ENE
Okean 3 3.5 18:55:23 10° N 18:59:27 50° E 19:03:31 10° SSE
Landsat 4 4.4 18:56:32 10° N 19:00:11 55° WNW 19:03:51 10° SSW
Shenzhou-11 Module 3.6 19:00:51 10° W 19:03:34 30° SSW 19:05:43 14° SSE
Cosmos 1975 Rocket 4.2 19:04:28 10° NNE 19:07:57 24° ENE 19:07:57 24° ENE
SJ-6B 2.9 19:05:59 10° SSE 19:09:34 45° ENE 19:13:14 10° N
SPOT 3 Rocket 4.2 19:04:50 10° S 19:09:57 60° WSW 19:15:07 10° NNW
USA 186 4.4 19:13:20 10° NNE 19:13:20 10° NNE 19:13:21 10° NNE
DNEPR-1 R/B 4.2 19:06:58 10° SW 19:11:05 53° NW 19:15:20 10° NNE
USA 267 4.1 19:08:44 19° ENE 19:12:22 33° NNE 19:18:03 10° NW
Cosmos 2219 Rocket 4.3 19:10:36 10° NW 19:15:24 29° WSW 19:20:09 10° SSW
Cosmos 1452 Rocket 3.4 19:13:03 10° NNW 19:18:20 74° ENE 19:23:35 10° SSE
CENTAUR R/B 2.5 19:12:35 10° SSW 19:18:22 59° ESE 19:24:34 12° NE
Meteor 1-14 Rocket 4.2 19:14:35 10° S 19:20:20 87° E 19:26:15 10° N
Okean 1 3.5 19:19:18 10° N 19:23:09 44° E 19:23:56 39° ESE
Cosmos 44 Rocket 3.6 19:19:03 10° NNW 19:23:58 51° NE 19:25:59 32° ESE
Spot 2 Rocket 4.3 19:24:28 28° ENE 19:24:28 28° ENE 19:28:36 10° N
Tiangong 2 1.0 19:21:48 10° WNW 19:24:59 78° SSW 19:25:22 64° SE
Cosmos 1048 Rocket 4.1 19:20:45 10° S 19:25:56 53° ESE 19:31:04 10° NNE
Cosmos 2227 Rocket 3.2 19:21:28 10° SW 19:26:55 47° WNW 19:32:22 10° NNE
Cosmos 2237 Rocket 3.3 19:22:53 10° NW 19:28:14 45° WSW 19:33:32 10° S
Geosat 4.2 19:25:09 21° NE 19:28:15 49° ESE 19:33:06 10° S
FREGAT/IRIS 3.7 19:25:39 10° S 19:28:29 45° W 19:31:22 10° NNW
Cosmos 1464 Rocket 3.9 19:23:32 10° N 19:29:41 85° E 19:35:50 10° S
Sich 1 Rocket 3.5 19:25:34 10° S 19:30:03 67° E 19:34:31 10° NNE
SL-16 R/B 2.1 19:25:06 10° NNW 19:30:47 76° ENE 19:35:31 15° SSE
H-2A R/B 4.5 19:29:36 10° SSW 19:33:13 35° W 19:36:50 10° NNW
Cosmos 1378 Rocket 3.5 19:30:04 10° N 19:34:30 88° W 19:38:55 10° S
Cosmos 1782 Rocket 3.5 19:33:39 10° S 19:38:02 61° E 19:42:25 10° NNE
Iridium 4 Rocket 3.3 19:33:51 10° N 19:38:51 80° W 19:43:23 10° S
Cosmos 158 Rocket 3.9 19:34:31 10° SSW 19:39:25 76° WNW 19:44:18 10° NNE
Meteor 1-20 Rocket 4.3 19:33:54 10° SSW 19:39:34 78° W 19:45:23 10° N
Cosmos 1420 Rocket 4.0 19:35:39 10° NNW 19:40:57 87° WSW 19:45:53 12° SSE
Cosmos 2297 Rocket 3.4 19:35:56 10° SW 19:41:15 42° WNW 19:46:38 10° N
CZ-2D R/B 3.4 19:43:08 18° S 19:45:57 74° WSW 19:49:52 10° NNW
Meteor 1-18 Rocket 4.3 19:40:23 10° NNW 19:45:59 74° W 19:51:30 10° S
Cosmos 1603 4.4 19:43:37 10° N 19:48:13 35° NE 19:48:13 35° NE
Lacrosse 5 3.7 19:47:02 10° WNW 19:51:20 28° WSW 19:55:36 10° S
Cosmos 2034 Rocket 4.2 19:57:19 10° NNW 20:03:41 72° W 20:10:00 10° S
Cosmos 44 3.9 19:58:48 10° NW 20:03:46 57° WSW 20:05:50 34° S
Thor Agena Rocket 4.1 19:58:49 10° N 20:03:49 56° WNW 20:08:44 10° SSW
Meteor 1-19 Rocket 4.0 19:59:10 10° N 20:04:42 75° E 20:05:04 71° ESE
BREEZE-M DEB (TANK) 3.8 20:03:38 10° SW 20:21:35 - NE 20:05:46 48° SSW
Cosmos 1437 Rocket 4.0 20:07:16 10° SSW 20:09:55 37° SW 20:09:55 37° SW
Envisat 3.7 20:07:52 10° S 20:12:48 52° W 20:17:47 10° NNW
Meteor 2-4 Rocket 4.2 20:10:23 10° N 20:14:43 48° NNE 20:14:43 48° NNE
Cosmos 1269 Rocket 4.2 20:11:58 10° SSW 20:17:14 69° WNW 20:18:52 44° N
CZ-4C R/B 3.8 20:11:25 10° NNW 20:16:56 30° NNE 20:16:56 30° NNE
SL-8 R/B 4.3 20:14:20 10° W 20:18:35 52° NW 20:18:35 52° NW
Cosmos 1634 Rocket 4.5 20:12:57 10° N 20:17:18 44° NNE 20:17:18 44° NNE
SeaSat 1 3.7 20:18:12 20° SSW 20:21:04 37° WSW 20:25:39 10° NW
USA 215 3.9 20:18:48 27° NNE 20:22:12 50° NNW 20:28:26 10° WSW
Cosmos 2346 Rocket 4.4 20:17:50 10° S 20:24:04 85° W 20:30:17 10° N
Resurs 01 Rocket 3.1 20:33:23 34° NW 20:33:23 34° NW 20:36:14 10° NNW
USA 267 3.5 20:56:05 63° NW 20:56:05 63° NW 21:01:27 10° NW
CENTAUR R/B 4.1 21:04:03 10° W 21:09:28 30° NW 21:11:52 25° N
